Tracking 29892 objects as of 21-Nov-2024
HD Live streaming from Space Station
objects crossing your sky now

FENGYUN 1C DEB

Track FENGYUN 1C DEB now!
10-day predictions


NORAD ID: 30197
Int'l Code: 1999-025VE
Perigee: 742.0 km
Apogee: 827.0 km
Inclination: 98.9 °
Period: 100.4 minutes
Semi major axis: 7155 km
RCS: 0.0866 m2 (small)
Launch date: May 10, 1999
Source: People's Republic of China (PRC)
Launch site: Taiyaun Space Center, China (TSC)

Note: This is SATELLITE DEBRIS
Your satellite tracking list
Your tracking list is empty




NASA's NSSDC Master Catalog

Two Line Element Set (TLE):
1 30197U 99025VE  24325.23631116  .00004284  00000-0  15107-2 0  9998
2 30197  98.9358 230.5996 0059450 274.2173 249.1176 14.34311635929390
Source of the keplerian elements: AFSPC